Time,TemperatureF,DewpointF,PressureIn,WindDirection,WindDirectionDegrees,WindSpeedMPH,WindSpeedGustMPH,Humidity,HourlyPrecipIn,Conditions,Clouds,dailyrainin,SoftwareType,DateUTC
2013-04-08 00:00:00,43.2,38.1,29.99,ENE,62,0.0,0.0,82,0.00,OVC,,0.00,WeatherDisplay:10.37,2013-04-08 04:00:00,
2013-04-08 00:05:00,43.2,38.1,29.99,NNE,28,0.6,3.5,82,0.00,OVC,,0.00,WeatherDisplay:10.37,2013-04-08 04:05:00,
2013-04-08 00:10:00,43.1,38.0,30.00,NNE,28,0.3,2.3,82,0.00,OVC,,0.00,WeatherDisplay:10.37,2013-04-08 04:10:00,
2013-04-08 00:15:00,43.1,38.0,30.00,NNE,28,0.0,0.0,82,0.00,OVC,,0.00,WeatherDisplay:10.37,2013-04-08 04:15:00,
2013-04-08 00:20:00,43.1,38.0,30.00,NNE,28,0.0,0.0,82,0.00,OVC,,0.00,WeatherDisplay:10.37,2013-04-08 04:20:00,
2013-04-08 00:25:00,43.0,37.9,30.00,NNE,28,0.0,0.0,82,0.00,OVC,,0.00,WeatherDisplay:10.37,2013-04-08 04:25:00,
2013-04-08 00:30:00,42.9,37.8,30.00,NNE,28,0.9,2.3,82,0.00,OVC,,0.00,WeatherDisplay:10.37,2013-04-08 04:30:00,
2013-04-08 00:35:00,42.9,37.8,30.00,NNE,28,0.0,0.0,82,0.00,OVC,,0.00,WeatherDisplay:10.37,2013-04-08 04:35:00,
2013-04-08 00:40:00,42.8,37.4,30.00,NNE,28,0.0,0.0,81,0.00,OVC,,0.00,WeatherDisplay:10.37,2013-04-08 04:40:00,
2013-04-08 00:45:00,42.7,37.3,30.00,NNE,28,0.0,0.0,81,0.00,OVC,,0.00,WeatherDisplay:10.37,2013-04-08 04:45:00,
2013-04-08 00:50:00,42.6,37.5,30.00,NNE,28,0.0,0.0,82,0.00,OVC,,0.00,WeatherDisplay:10.37,2013-04-08 04:50:00,
2013-04-08 00:55:00,42.4,37.3,30.00,NNE,28,0.0,0.0,82,0.00,OVC,,0.00,WeatherDisplay:10.37,2013-04-08 04:55:00,
2013-04-08 01:00:00,42.2,37.1,30.01,NNE,28,0.0,0.0,82,0.00,OVC,,0.00,WeatherDisplay:10.37,2013-04-08 05:00:00,
2013-04-08 01:05:00,42.1,37.3,30.01,NNE,28,0.0,0.0,83,0.00,BKN,,0.00,WeatherDisplay:10.37,2013-04-08 05:05:00,
2013-04-08 01:10:00,41.9,37.1,30.01,NNE,28,0.0,0.0,83,0.00,BKN,,0.00,WeatherDisplay:10.37,2013-04-08 05:10:00,
2013-04-08 01:15:00,41.7,36.9,30.01,NNE,28,0.0,0.0,83,0.00,BKN,,0.00,WeatherDisplay:10.37,2013-04-08 05:15:00,
2013-04-08 01:20:00,41.5,36.7,30.01,NNE,28,0.0,0.0,83,0.00,BKN,,0.00,WeatherDisplay:10.37,2013-04-08 05:20:00,
2013-04-08 01:25:00,41.3,36.5,30.01,NNE,28,0.0,0.0,83,0.00,BKN,,0.00,WeatherDisplay:10.37,2013-04-08 05:25:00,
2013-04-08 01:30:00,41.1,36.3,30.01,NNE,28,0.0,0.0,83,0.00,BKN,,0.00,WeatherDisplay:10.37,2013-04-08 05:30:00,
2013-04-08 01:35:00,40.9,36.4,30.01,NNE,28,0.0,0.0,84,0.00,BKN,,0.00,WeatherDisplay:10.37,2013-04-08 05:35:00,
2013-04-08 01:40:00,40.6,36.1,30.02,NNE,28,0.0,0.0,84,0.00,BKN,,0.00,WeatherDisplay:10.37,2013-04-08 05:40:00,
2013-04-08 01:45:00,40.3,35.8,30.02,NNE,28,0.0,0.0,84,0.00,BKN,,0.00,WeatherDisplay:10.37,2013-04-08 05:45:00,
2013-04-08 01:50:00,40.1,36.0,30.02,NNE,28,0.0,0.0,85,0.00,BKN,,0.00,WeatherDisplay:10.37,2013-04-08 05:50:00,
2013-04-08 01:55:00,39.8,35.7,30.02,NNE,28,0.0,0.0,85,0.00,BKN,,0.00,WeatherDisplay:10.37,2013-04-08 05:55:00,
2013-04-08 02:00:00,39.6,35.5,30.03,NNE,28,0.0,0.0,85,0.00,BKN,,0.00,WeatherDisplay:10.37,2013-04-08 06:00:00,
2013-04-08 02:06:00,39.4,35.6,30.03,NNE,28,0.0,0.0,86,0.00,SCT,,0.00,WeatherDisplay:10.37,2013-04-08 06:06:00,
2013-04-08 02:11:00,39.2,35.7,30.02,NNE,28,0.0,0.0,87,0.00,SCT,,0.00,WeatherDisplay:10.37,2013-04-08 06:11:00,
2013-04-08 02:16:00,38.8,35.3,30.02,NNE,28,0.0,0.0,87,0.00,SCT,,0.00,WeatherDisplay:10.37,2013-04-08 06:16:00,
2013-04-08 02:21:00,38.6,35.1,30.02,NNE,28,0.0,0.0,87,0.00,SCT,,0.00,WeatherDisplay:10.37,2013-04-08 06:21:00,
2013-04-08 02:26:00,38.4,35.2,30.02,NNE,28,0.0,0.0,88,0.00,SCT,,0.00,WeatherDisplay:10.37,2013-04-08 06:26:00,
2013-04-08 02:31:00,38.3,35.3,30.02,NNE,28,0.0,0.0,89,0.00,SCT,,0.00,WeatherDisplay:10.37,2013-04-08 06:31:00,
2013-04-08 02:36:00,38.2,35.2,30.02,NNE,28,0.0,0.0,89,0.00,SCT,,0.00,WeatherDisplay:10.37,2013-04-08 06:36:00,
2013-04-08 02:41:00,38.0,35.0,30.02,NNE,28,0.0,0.0,89,0.00,SCT,,0.00,WeatherDisplay:10.37,2013-04-08 06:41:00,
2013-04-08 02:46:00,37.9,34.9,30.01,NNE,28,0.0,0.0,89,0.00,SCT,,0.00,WeatherDisplay:10.37,2013-04-08 06:46:00,
2013-04-08 02:51:00,37.7,34.8,30.01,NNE,28,0.0,0.0,89,0.00,SCT,,0.00,WeatherDisplay:10.37,2013-04-08 06:51:00,
2013-04-08 02:56:00,37.6,34.7,30.01,NNE,28,0.0,0.0,89,0.00,SCT,,0.00,WeatherDisplay:10.37,2013-04-08 06:56:00,
2013-04-08 03:01:00,37.5,34.6,30.01,NNE,28,0.0,0.0,89,0.00,FEW,,0.00,WeatherDisplay:10.37,2013-04-08 07:01:00,
2013-04-08 03:06:00,37.3,34.6,30.01,NNE,28,0.0,0.0,90,0.00,FEW,,0.00,WeatherDisplay:10.37,2013-04-08 07:06:00,
2013-04-08 03:11:00,37.1,34.4,30.01,NNE,28,0.0,0.0,90,0.00,FEW,,0.00,WeatherDisplay:10.37,2013-04-08 07:11:00,
2013-04-08 03:17:00,36.9,34.2,30.01,NNE,28,0.0,0.0,90,0.00,FEW,,0.00,WeatherDisplay:10.37,2013-04-08 07:17:00,
2013-04-08 03:22:00,36.8,34.4,30.01,NNE,28,0.0,0.0,91,0.00,FEW,,0.00,WeatherDisplay:10.37,2013-04-08 07:22:00,
2013-04-08 03:27:00,36.7,34.3,30.01,NNE,28,0.0,0.0,91,0.00,FEW,,0.00,WeatherDisplay:10.37,2013-04-08 07:27:00,
2013-04-08 03:32:00,36.5,34.1,30.01,NNE,28,0.0,0.0,91,0.00,FEW,,0.00,WeatherDisplay:10.37,2013-04-08 07:32:00,
2013-04-08 03:37:00,36.3,33.9,30.01,NNE,28,0.0,0.0,91,0.00,FEW,,0.00,WeatherDisplay:10.37,2013-04-08 07:37:00,
2013-04-08 03:42:00,36.3,34.2,30.01,NNE,28,0.0,0.0,92,0.00,FEW,,0.00,WeatherDisplay:10.37,2013-04-08 07:42:00,
2013-04-08 03:48:00,36.2,34.1,30.01,NNE,28,0.0,0.0,92,0.00,FEW,,0.00,WeatherDisplay:10.37,2013-04-08 07:48:00,
2013-04-08 03:53:00,36.2,34.1,30.01,NNE,28,0.0,0.0,92,0.00,FEW,,0.00,WeatherDisplay:10.37,2013-04-08 07:53:00,
2013-04-08 03:58:00,36.1,34.0,30.02,NNE,28,0.0,0.0,92,0.00,FEW,,0.00,WeatherDisplay:10.37,2013-04-08 07:58:00,
2013-04-08 04:03:00,35.9,33.8,30.01,NNE,28,0.0,0.0,92,0.00,CLR,,0.00,WeatherDisplay:10.37,2013-04-08 08:03:00,
2013-04-08 04:08:00,35.9,33.8,30.01,NNE,28,0.0,0.0,92,0.00,CLR,,0.00,WeatherDisplay:10.37,2013-04-08 08:08:00,
2013-04-08 04:13:00,35.8,34.0,30.01,NNE,28,0.0,0.0,93,0.00,CLR,,0.00,WeatherDisplay:10.37,2013-04-08 08:13:00,
2013-04-08 04:18:00,35.8,34.0,30.00,NNE,28,0.0,0.0,93,0.00,CLR,,0.00,WeatherDisplay:10.37,2013-04-08 08:18:00,
2013-04-08 04:23:00,35.7,33.9,30.01,NNE,28,0.0,0.0,93,0.00,CLR,,0.00,WeatherDisplay:10.37,2013-04-08 08:23:00,
2013-04-08 04:28:00,35.7,33.9,30.01,NNE,28,0.0,0.0,93,0.00,CLR,,0.00,WeatherDisplay:10.37,2013-04-08 08:28:00,
2013-04-08 04:33:00,35.6,33.8,30.01,NNE,28,0.0,0.0,93,0.00,CLR,,0.00,WeatherDisplay:10.37,2013-04-08 08:33:00,
2013-04-08 04:38:00,35.5,33.7,30.00,NNE,28,0.0,0.0,93,0.00,CLR,,0.00,WeatherDisplay:10.37,2013-04-08 08:38:00,
2013-04-08 04:43:00,35.3,33.5,30.00,NNE,28,0.0,0.0,93,0.00,CLR,,0.00,WeatherDisplay:10.37,2013-04-08 08:43:00,
2013-04-08 04:48:00,35.2,33.4,30.00,NNE,28,0.0,0.0,93,0.00,CLR,,0.00,WeatherDisplay:10.37,2013-04-08 08:48:00,
2013-04-08 04:53:00,35.2,33.4,30.00,NNE,28,0.0,0.0,93,0.00,CLR,,0.00,WeatherDisplay:10.37,2013-04-08 08:53:00,
2013-04-08 04:58:00,35.1,33.5,30.00,NNE,28,0.0,0.0,94,0.00,CLR,,0.00,WeatherDisplay:10.37,2013-04-08 08:58:00,
2013-04-08 05:03:00,35.1,33.5,30.00,NNE,28,0.0,0.0,94,0.00,CLR,,0.00,WeatherDisplay:10.37,2013-04-08 09:03:00,
2013-04-08 05:08:00,35.0,33.4,30.00,NNE,28,0.0,0.0,94,0.00,CLR,,0.00,WeatherDisplay:10.37,2013-04-08 09:08:00,
2013-04-08 05:13:00,35.0,33.4,30.00,NNE,28,0.0,0.0,94,0.00,CLR,,0.00,WeatherDisplay:10.37,2013-04-08 09:13:00,
2013-04-08 05:18:00,35.0,33.4,30.00,NNE,28,0.0,0.0,94,0.00,CLR,,0.00,WeatherDisplay:10.37,2013-04-08 09:18:00,
2013-04-08 05:23:00,34.8,33.2,30.00,NNE,28,1.6,2.3,94,0.00,CLR,,0.00,WeatherDisplay:10.37,2013-04-08 09:23:00,
2013-04-08 05:28:00,34.8,33.2,30.00,NNE,28,0.0,0.0,94,0.00,CLR,,0.00,WeatherDisplay:10.37,2013-04-08 09:28:00,
2013-04-08 05:33:00,34.7,33.2,30.00,NNE,28,0.0,0.0,94,0.00,CLR,,0.00,WeatherDisplay:10.37,2013-04-08 09:33:00,
2013-04-08 05:38:00,34.6,33.1,30.00,NNE,28,0.0,0.0,94,0.00,CLR,,0.00,WeatherDisplay:10.37,2013-04-08 09:38:00,
2013-04-08 05:43:00,34.7,33.4,30.00,NNE,28,0.0,0.0,95,0.00,CLR,,0.00,WeatherDisplay:10.37,2013-04-08 09:43:00,
2013-04-08 05:48:00,34.7,33.4,30.00,NNE,28,0.0,0.0,95,0.00,CLR,,0.00,WeatherDisplay:10.37,2013-04-08 09:48:00,
2013-04-08 05:53:00,34.7,33.4,30.00,NNE,28,0.0,2.3,95,0.00,CLR,,0.00,WeatherDisplay:10.37,2013-04-08 09:53:00,
2013-04-08 05:58:00,34.6,33.1,30.00,NNE,28,0.0,0.0,94,0.00,CLR,,0.00,WeatherDisplay:10.37,2013-04-08 09:58:00,
2013-04-08 06:03:00,34.5,33.0,30.00,NNE,28,0.0,0.0,94,0.00,CLR,,0.00,WeatherDisplay:10.37,2013-04-08 10:03:00,
2013-04-08 06:08:00,34.5,33.2,30.00,NNE,28,0.0,0.0,95,0.00,CLR,,0.00,WeatherDisplay:10.37,2013-04-08 10:08:00,
2013-04-08 06:13:00,34.4,33.1,30.00,NNE,28,0.0,0.0,95,0.00,CLR,,0.00,WeatherDisplay:10.37,2013-04-08 10:13:00,
2013-04-08 06:18:00,34.4,33.1,29.99,NNE,28,0.0,0.0,95,0.00,CLR,,0.00,WeatherDisplay:10.37,2013-04-08 10:18:00,
2013-04-08 06:23:00,34.4,33.1,29.99,NE,53,0.0,3.5,95,0.00,CLR,,0.00,WeatherDisplay:10.37,2013-04-08 10:23:00,
2013-04-08 06:28:00,34.8,33.8,29.99,ENE,58,0.2,3.0,96,0.00,CLR,,0.00,WeatherDisplay:10.37,2013-04-08 10:28:00,
2013-04-08 06:33:00,35.6,34.8,30.00,SSE,150,2.7,4.6,97,0.00,CLR,,0.00,WeatherDisplay:10.37,2013-04-08 10:33:00,
2013-04-08 06:38:00,36.1,35.3,29.99,SSE,150,0.0,2.3,97,0.00,CLR,,0.00,WeatherDisplay:10.37,2013-04-08 10:38:00,
2013-04-08 06:43:00,36.4,35.6,29.99,SSE,150,0.5,2.3,97,0.00,CLR,,0.00,WeatherDisplay:10.37,2013-04-08 10:43:00,
2013-04-08 06:48:00,36.8,36.0,30.00,SSE,150,3.5,5.8,97,0.00,CLR,,0.00,WeatherDisplay:10.37,2013-04-08 10:48:00,
2013-04-08 06:53:00,37.0,36.2,30.00,SSE,149,1.6,2.3,97,0.00,CLR,,0.00,WeatherDisplay:10.37,2013-04-08 10:53:00,
2013-04-08 06:58:00,37.5,36.7,30.00,SE,144,0.2,1.1,97,0.00,CLR,,0.00,WeatherDisplay:10.37,2013-04-08 10:58:00,
2013-04-08 07:03:00,37.9,37.1,30.00,ESE,103,1.7,5.8,97,0.00,BKN,,0.00,WeatherDisplay:10.37,2013-04-08 11:03:00,
2013-04-08 07:08:00,38.1,37.1,30.01,SE,125,1.9,4.6,96,0.00,BKN,,0.00,WeatherDisplay:10.37,2013-04-08 11:08:00,
2013-04-08 07:13:00,38.4,37.4,30.01,SE,139,1.8,6.9,96,0.00,BKN,,0.00,WeatherDisplay:10.37,2013-04-08 11:13:00,
2013-04-08 07:18:00,38.7,37.4,30.01,ESE,114,2.3,3.5,95,0.00,BKN,,0.00,WeatherDisplay:10.37,2013-04-08 11:18:00,
2013-04-08 07:23:00,38.9,37.6,30.02,SE,140,0.7,3.5,95,0.00,BKN,,0.00,WeatherDisplay:10.37,2013-04-08 11:23:00,
2013-04-08 07:28:00,39.1,37.5,30.02,SE,140,0.0,0.0,94,0.00,BKN,,0.00,WeatherDisplay:10.37,2013-04-08 11:28:00,
2013-04-08 07:33:00,39.3,37.7,30.02,SE,140,0.0,1.1,94,0.00,BKN,,0.00,WeatherDisplay:10.37,2013-04-08 11:33:00,
2013-04-08 07:38:00,39.5,37.6,30.02,SE,140,0.2,1.1,93,0.00,BKN,,0.00,WeatherDisplay:10.37,2013-04-08 11:38:00,
2013-04-08 07:43:00,39.7,37.8,30.02,SE,140,0.8,3.5,93,0.00,BKN,,0.00,WeatherDisplay:10.37,2013-04-08 11:43:00,
2013-04-08 07:48:00,39.8,37.9,30.02,SE,140,0.4,1.1,93,0.00,BKN,,0.00,WeatherDisplay:10.37,2013-04-08 11:48:00,
2013-04-08 07:53:00,40.0,37.9,30.02,SE,140,0.0,0.0,92,0.00,BKN,,0.00,WeatherDisplay:10.37,2013-04-08 11:53:00,
2013-04-08 07:58:00,40.2,38.1,30.03,SE,140,1.7,3.5,92,0.00,BKN,,0.00,WeatherDisplay:10.37,2013-04-08 11:58:00,
2013-04-08 08:03:00,40.5,38.4,30.03,SE,140,1.4,4.6,92,0.00,BKN,,0.00,WeatherDisplay:10.37,2013-04-08 12:03:00,
2013-04-08 08:08:00,40.8,38.7,30.03,SE,140,1.4,3.5,92,0.00,BKN,,0.00,WeatherDisplay:10.37,2013-04-08 12:08:00,
2013-04-08 08:13:00,41.3,38.9,30.03,SE,138,0.1,4.0,91,0.00,BKN,,0.00,WeatherDisplay:10.37,2013-04-08 12:13:00,
2013-04-08 08:18:00,41.8,39.4,30.03,SE,133,0.1,1.1,91,0.00,BKN,,0.00,WeatherDisplay:10.37,2013-04-08 12:18:00,
2013-04-08 08:23:00,42.3,39.6,30.03,SE,133,1.4,3.5,90,0.00,BKN,,0.00,WeatherDisplay:10.37,2013-04-08 12:23:00,
2013-04-08 08:28:00,42.8,40.1,30.03,SE,131,0.3,2.3,90,0.00,BKN,,0.00,WeatherDisplay:10.37,2013-04-08 12:28:00,
2013-04-08 08:34:00,43.3,40.3,30.02,SE,131,0.0,0.0,89,0.00,BKN,,0.00,WeatherDisplay:10.37,2013-04-08 12:34:00,
2013-04-08 08:39:00,43.7,41.0,30.02,SE,132,0.7,2.3,90,0.00,BKN,,0.00,WeatherDisplay:10.37,2013-04-08 12:39:00,
2013-04-08 08:44:00,44.2,40.9,30.01,SSE,156,0.6,3.5,88,0.00,BKN,,0.00,WeatherDisplay:10.37,2013-04-08 12:44:00,
2013-04-08 08:49:00,44.6,40.7,30.01,SSE,150,3.3,5.8,86,0.00,BKN,,0.00,WeatherDisplay:10.37,2013-04-08 12:49:00,
2013-04-08 08:54:00,45.0,40.8,30.01,SE,146,0.0,2.3,85,0.00,BKN,,0.00,WeatherDisplay:10.37,2013-04-08 12:54:00,
2013-04-08 08:59:00,45.4,41.2,30.01,SE,146,0.2,2.3,85,0.00,BKN,,0.00,WeatherDisplay:10.37,2013-04-08 12:59:00,
2013-04-08 09:04:00,45.7,41.1,30.01,SSE,164,3.2,6.9,84,0.00,OVC,,0.00,WeatherDisplay:10.37,2013-04-08 13:04:00,
2013-04-08 09:09:00,46.0,41.1,30.01,SE,146,0.4,4.6,83,0.00,OVC,,0.00,WeatherDisplay:10.37,2013-04-08 13:09:00,
2013-04-08 09:14:00,46.3,41.4,30.01,South,175,0.5,1.1,83,0.00,OVC,,0.00,WeatherDisplay:10.37,2013-04-08 13:14:00,
2013-04-08 09:19:00,46.6,41.7,30.01,SSE,160,4.1,8.1,83,0.00,OVC,,0.00,WeatherDisplay:10.37,2013-04-08 13:19:00,
2013-04-08 09:24:00,46.9,41.7,30.00,South,175,0.9,4.0,82,0.00,OVC,,0.00,WeatherDisplay:10.37,2013-04-08 13:24:00,
2013-04-08 09:29:00,47.3,41.8,30.00,SE,133,2.5,3.5,81,0.00,OVC,,0.00,WeatherDisplay:10.37,2013-04-08 13:29:00,
2013-04-08 09:34:00,47.7,42.2,30.00,SE,141,1.7,5.0,81,0.00,OVC,,0.00,WeatherDisplay:10.37,2013-04-08 13:34:00,
2013-04-08 09:39:00,48.2,42.6,30.00,SE,124,0.9,2.3,81,0.00,OVC,,0.00,WeatherDisplay:10.37,2013-04-08 13:39:00,
2013-04-08 09:44:00,48.7,42.8,30.00,South,170,0.0,2.3,80,0.00,OVC,,0.00,WeatherDisplay:10.37,2013-04-08 13:44:00,
2013-04-08 09:50:00,49.1,42.5,30.00,SSE,162,2.3,4.0,78,0.00,OVC,,0.00,WeatherDisplay:10.37,2013-04-08 13:50:00,
2013-04-08 09:55:00,49.6,43.4,29.99,SSE,155,1.3,5.0,79,0.00,OVC,,0.00,WeatherDisplay:10.37,2013-04-08 13:55:00,
2013-04-08 10:00:00,50.2,43.6,29.99,South,171,3.8,4.6,78,0.00,OVC,,0.00,WeatherDisplay:10.37,2013-04-08 14:00:00,
2013-04-08 10:05:00,50.8,42.8,29.99,South,170,4.2,9.2,74,0.00,OVC,,0.00,WeatherDisplay:10.37,2013-04-08 14:05:00,
2013-04-08 10:10:00,51.4,44.1,29.99,SSW,206,4.3,6.9,76,0.00,OVC,,0.00,WeatherDisplay:10.37,2013-04-08 14:10:00,
2013-04-08 10:15:00,52.0,43.6,29.99,South,176,6.0,7.0,73,0.00,OVC,,0.00,WeatherDisplay:10.37,2013-04-08 14:15:00,
2013-04-08 10:20:00,52.6,44.2,29.99,SSE,149,4.9,8.1,73,0.00,OVC,,0.00,WeatherDisplay:10.37,2013-04-08 14:20:00,
2013-04-08 10:25:00,53.3,44.1,29.98,South,169,4.5,8.1,71,0.00,OVC,,0.00,WeatherDisplay:10.37,2013-04-08 14:25:00,
2013-04-08 10:30:00,53.9,44.0,29.98,SE,132,6.1,6.9,69,0.00,OVC,,0.00,WeatherDisplay:10.37,2013-04-08 14:30:00,
2013-04-08 10:35:00,54.6,45.0,29.98,SSE,167,2.9,4.6,70,0.00,OVC,,0.00,WeatherDisplay:10.37,2013-04-08 14:35:00,
2013-04-08 10:40:00,55.3,44.9,29.98,South,169,3.3,6.0,68,0.00,OVC,,0.00,WeatherDisplay:10.37,2013-04-08 14:40:00,
2013-04-08 10:45:00,55.9,45.5,29.98,South,169,5.0,10.0,68,0.00,OVC,OVC,0.00,WeatherDisplay:10.37,2013-04-08 14:45:00,
2013-04-08 10:50:00,56.4,45.6,29.98,South,174,2.0,9.0,67,0.00,OVC,OVC,0.00,WeatherDisplay:10.37,2013-04-08 14:50:00,
2013-04-08 10:55:00,56.9,45.6,29.97,South,176,8.0,12.0,66,0.00,OVC,OVC,0.00,WeatherDisplay:10.37,2013-04-08 14:55:00,
2013-04-08 11:00:00,57.4,46.6,29.97,South,180,5.0,10.0,67,0.00,OVC,OVC,0.00,WeatherDisplay:10.37,2013-04-08 15:00:00,
2013-04-08 11:05:00,58.0,46.7,29.97,South,186,8.0,12.0,66,0.00,BKN,BKN,0.00,WeatherDisplay:10.37,2013-04-08 15:05:00,
2013-04-08 11:10:00,58.3,47.0,29.97,South,171,4.8,9.2,66,0.00,BKN,,0.00,WeatherDisplay:10.37,2013-04-08 15:10:00,
2013-04-08 11:15:00,58.4,46.7,29.97,SSE,157,2.9,9.2,65,0.00,BKN,,0.00,WeatherDisplay:10.37,2013-04-08 15:15:00,
2013-04-08 11:20:00,58.4,47.1,29.97,SSE,162,2.0,9.0,66,0.00,BKN,BKN,0.00,WeatherDisplay:10.37,2013-04-08 15:20:00,
2013-04-08 11:25:00,58.4,47.5,29.97,SSE,163,2.0,6.0,67,0.00,BKN,BKN,0.00,WeatherDisplay:10.37,2013-04-08 15:25:00,
2013-04-08 11:30:00,58.4,47.5,29.97,SSW,196,1.6,3.5,67,0.00,BKN,,0.00,WeatherDisplay:10.37,2013-04-08 15:30:00,
2013-04-08 11:35:00,58.4,47.5,29.97,South,176,5.9,8.1,67,0.00,BKN,,0.00,WeatherDisplay:10.37,2013-04-08 15:35:00,
2013-04-08 11:40:00,58.6,48.1,29.97,South,178,5.6,9.2,68,0.00,BKN,,0.00,WeatherDisplay:10.37,2013-04-08 15:40:00,
2013-04-08 11:45:00,58.9,47.6,29.97,SSW,200,2.0,4.6,66,0.00,BKN,,0.00,WeatherDisplay:10.37,2013-04-08 15:45:00,
2013-04-08 11:50:00,59.3,48.3,29.96,South,170,5.5,10.4,67,0.00,BKN,,0.00,WeatherDisplay:10.37,2013-04-08 15:50:00,
2013-04-08 11:55:00,59.7,48.3,29.96,South,188,6.7,11.5,66,0.00,BKN,,0.00,WeatherDisplay:10.37,2013-04-08 15:55:00,
2013-04-08 12:00:00,59.8,48.0,29.96,SSW,193,5.0,9.2,65,0.00,BKN,,0.00,WeatherDisplay:10.37,2013-04-08 16:00:00,
2013-04-08 12:05:00,59.8,48.0,29.96,South,169,3.0,5.0,65,0.00,OVC,,0.00,WeatherDisplay:10.37,2013-04-08 16:05:00,
2013-04-08 12:10:00,59.8,48.8,29.95,SSE,168,6.8,10.4,67,0.00,OVC,,0.00,WeatherDisplay:10.37,2013-04-08 16:10:00,
2013-04-08 12:15:00,59.8,48.8,29.95,South,183,4.2,6.9,67,0.00,OVC,,0.00,WeatherDisplay:10.37,2013-04-08 16:15:00,
2013-04-08 12:20:00,59.9,48.9,29.94,South,183,6.2,10.4,67,0.00,OVC,,0.00,WeatherDisplay:10.37,2013-04-08 16:20:00,
2013-04-08 12:25:00,60.4,49.8,29.94,South,191,5.1,6.9,68,0.00,OVC,,0.00,WeatherDisplay:10.37,2013-04-08 16:25:00,
2013-04-08 12:30:00,61.0,50.0,29.94,South,180,7.0,9.2,67,0.00,OVC,,0.00,WeatherDisplay:10.37,2013-04-08 16:30:00,
2013-04-08 12:35:00,61.6,49.7,29.93,South,176,6.0,9.2,65,0.00,OVC,,0.00,WeatherDisplay:10.37,2013-04-08 16:35:00,
2013-04-08 12:40:00,62.2,50.7,29.92,South,175,6.3,9.2,66,0.00,OVC,,0.00,WeatherDisplay:10.37,2013-04-08 16:40:00,
2013-04-08 12:45:00,62.8,50.4,29.92,SSW,212,4.7,9.2,64,0.00,OVC,,0.00,WeatherDisplay:10.37,2013-04-08 16:45:00,
2013-04-08 12:50:00,63.6,51.2,29.92,SSW,200,7.5,11.5,64,0.00,OVC,,0.00,WeatherDisplay:10.37,2013-04-08 16:50:00,
2013-04-08 12:55:00,64.3,51.0,29.91,South,174,7.1,10.4,62,0.00,OVC,,0.00,WeatherDisplay:10.37,2013-04-08 16:55:00,
2013-04-08 13:00:00,65.0,51.7,29.91,SSW,204,4.8,9.2,62,0.00,OVC,,0.00,WeatherDisplay:10.37,2013-04-08 17:00:00,
2013-04-08 13:05:00,65.7,51.9,29.91,SSW,202,7.9,10.4,61,0.00,BKN,,0.00,WeatherDisplay:10.37,2013-04-08 17:05:00,
2013-04-08 13:10:00,66.1,51.8,29.90,SE,126,7.1,11.5,60,0.00,BKN,,0.00,WeatherDisplay:10.37,2013-04-08 17:10:00,
2013-04-08 13:16:00,66.7,51.9,29.90,WSW,246,6.0,9.2,59,0.00,BKN,,0.00,WeatherDisplay:10.37,2013-04-08 17:16:00,
2013-04-08 13:21:00,67.2,51.9,29.90,SSW,194,5.7,11.5,58,0.00,BKN,,0.00,WeatherDisplay:10.37,2013-04-08 17:21:00,
2013-04-08 13:26:00,67.6,51.8,29.90,SSE,163,7.8,11.5,57,0.00,BKN,,0.00,WeatherDisplay:10.37,2013-04-08 17:26:00,
2013-04-08 13:31:00,67.8,52.9,29.89,SW,236,5.0,6.9,59,0.00,BKN,,0.00,WeatherDisplay:10.37,2013-04-08 17:31:00,
2013-04-08 13:37:00,68.2,51.9,29.89,SSW,195,4.3,5.0,56,0.00,BKN,,0.00,WeatherDisplay:10.37,2013-04-08 17:37:00,
2013-04-08 13:42:00,68.6,51.3,29.88,SSW,193,6.2,8.1,54,0.00,BKN,,0.00,WeatherDisplay:10.37,2013-04-08 17:42:00,
2013-04-08 13:47:00,68.6,51.3,29.88,SSW,197,5.5,11.5,54,0.00,BKN,,0.00,WeatherDisplay:10.37,2013-04-08 17:47:00,
2013-04-08 13:52:00,68.6,51.3,29.88,WSW,238,9.8,12.0,54,0.00,BKN,,0.00,WeatherDisplay:10.37,2013-04-08 17:52:00,
2013-04-08 13:57:00,68.5,51.2,29.88,WSW,255,4.5,13.8,54,0.00,BKN,,0.00,WeatherDisplay:10.37,2013-04-08 17:57:00,
2013-04-08 14:02:00,68.3,51.0,29.88,West,265,5.5,6.9,54,0.00,OVC,,0.00,WeatherDisplay:10.37,2013-04-08 18:02:00,
2013-04-08 14:07:00,68.1,50.8,29.88,SW,217,7.0,9.2,54,0.00,OVC,,0.00,WeatherDisplay:10.37,2013-04-08 18:07:00,
2013-04-08 14:12:00,68.0,50.7,29.88,West,277,11.2,16.1,54,0.00,OVC,,0.00,WeatherDisplay:10.37,2013-04-08 18:12:00,
2013-04-08 14:17:00,68.0,50.2,29.88,SSW,209,10.2,16.1,53,0.00,OVC,,0.00,WeatherDisplay:10.37,2013-04-08 18:17:00,
2013-04-08 14:22:00,67.9,50.6,29.88,SW,229,6.8,16.1,54,0.00,OVC,,0.00,WeatherDisplay:10.37,2013-04-08 18:22:00,
2013-04-08 14:27:00,67.7,49.9,29.88,SW,232,8.2,17.3,53,0.00,OVC,,0.00,WeatherDisplay:10.37,2013-04-08 18:27:00,
2013-04-08 14:32:00,67.6,50.9,29.88,WSW,245,2.7,5.8,55,0.00,OVC,,0.00,WeatherDisplay:10.37,2013-04-08 18:32:00,
2013-04-08 14:37:00,67.7,50.5,29.87,SSW,206,4.9,8.1,54,0.00,OVC,,0.00,WeatherDisplay:10.37,2013-04-08 18:37:00,
2013-04-08 14:42:00,67.8,51.0,29.87,WSW,242,3.4,7.0,55,0.00,OVC,,0.00,WeatherDisplay:10.37,2013-04-08 18:42:00,
2013-04-08 14:47:00,68.1,50.8,29.87,WSW,237,4.6,5.8,54,0.00,OVC,,0.00,WeatherDisplay:10.37,2013-04-08 18:47:00,
2013-04-08 14:52:00,68.3,52.0,29.87,SW,232,4.5,6.9,56,0.00,OVC,,0.00,WeatherDisplay:10.37,2013-04-08 18:52:00,
2013-04-08 14:57:00,68.7,51.9,29.86,SSW,206,4.0,11.5,55,0.00,OVC,,0.00,WeatherDisplay:10.37,2013-04-08 18:57:00,
2013-04-08 15:02:00,69.2,51.3,29.86,WSW,238,5.3,8.1,53,0.00,OVC,,0.00,WeatherDisplay:10.37,2013-04-08 19:02:00,
2013-04-08 15:07:00,69.6,51.7,29.85,SSW,212,10.1,21.9,53,0.00,OVC,,0.00,WeatherDisplay:10.37,2013-04-08 19:07:00,
2013-04-08 15:12:00,70.0,51.0,29.85,SW,215,7.0,11.5,51,0.00,OVC,,0.00,WeatherDisplay:10.37,2013-04-08 19:12:00,
2013-04-08 15:17:00,70.6,51.6,29.84,SW,228,11.7,18.4,51,0.00,OVC,,0.00,WeatherDisplay:10.37,2013-04-08 19:17:00,
2013-04-08 15:22:00,71.2,51.6,29.84,South,169,8.0,11.5,50,0.00,OVC,,0.00,WeatherDisplay:10.37,2013-04-08 19:22:00,
2013-04-08 15:28:00,71.6,50.9,29.83,South,189,7.9,13.0,48,0.00,OVC,,0.00,WeatherDisplay:10.37,2013-04-08 19:28:00,
2013-04-08 15:33:00,71.5,50.8,29.83,SW,226,7.2,11.5,48,0.00,OVC,,0.00,WeatherDisplay:10.37,2013-04-08 19:33:00,
2013-04-08 15:38:00,71.2,50.5,29.83,SW,214,10.8,18.4,48,0.00,OVC,,0.00,WeatherDisplay:10.37,2013-04-08 19:38:00,
2013-04-08 15:43:00,70.9,49.7,29.83,SSW,211,9.4,16.1,47,0.00,OVC,,0.00,WeatherDisplay:10.37,2013-04-08 19:43:00,
2013-04-08 15:48:00,70.7,49.5,29.83,SSE,163,8.9,16.1,47,0.00,OVC,,0.00,WeatherDisplay:10.37,2013-04-08 19:48:00,
2013-04-08 15:53:00,70.6,49.4,29.84,SW,231,9.7,16.1,47,0.00,OVC,,0.00,WeatherDisplay:10.37,2013-04-08 19:53:00,
2013-04-08 15:58:00,70.4,49.8,29.83,WSW,246,6.3,11.5,48,0.00,OVC,,0.00,WeatherDisplay:10.37,2013-04-08 19:58:00,
2013-04-08 16:03:00,70.4,50.3,29.83,SW,214,3.7,6.9,49,0.00,OVC,,0.00,WeatherDisplay:10.37,2013-04-08 20:03:00,
2013-04-08 16:08:00,70.3,49.7,29.83,SW,219,8.5,13.0,48,0.00,OVC,,0.00,WeatherDisplay:10.37,2013-04-08 20:08:00,
2013-04-08 16:13:00,70.1,48.9,29.83,SW,223,10.0,13.8,47,0.00,OVC,,0.00,WeatherDisplay:10.37,2013-04-08 20:13:00,
2013-04-08 16:18:00,69.9,49.3,29.83,WSW,246,7.6,17.3,48,0.00,OVC,,0.00,WeatherDisplay:10.37,2013-04-08 20:18:00,
2013-04-08 16:23:00,69.7,49.7,29.83,SW,218,6.4,11.5,49,0.00,OVC,,0.00,WeatherDisplay:10.37,2013-04-08 20:23:00,
2013-04-08 16:28:00,69.6,49.6,29.84,WSW,256,6.3,9.2,49,0.00,OVC,,0.00,WeatherDisplay:10.37,2013-04-08 20:28:00,
2013-04-08 16:33:00,69.7,49.7,29.83,WSW,246,7.2,19.6,49,0.00,OVC,,0.00,WeatherDisplay:10.37,2013-04-08 20:33:00,
2013-04-08 16:38:00,69.7,49.7,29.83,WSW,241,8.8,11.5,49,0.00,OVC,,0.00,WeatherDisplay:10.37,2013-04-08 20:38:00,
2013-04-08 16:43:00,69.7,49.7,29.83,WSW,239,6.5,11.5,49,0.00,OVC,,0.00,WeatherDisplay:10.37,2013-04-08 20:43:00,
2013-04-08 16:48:00,69.6,49.6,29.83,WSW,247,9.9,21.9,49,0.00,OVC,,0.00,WeatherDisplay:10.37,2013-04-08 20:48:00,
2013-04-08 16:53:00,69.6,49.6,29.84,WSW,240,5.9,11.5,49,0.00,OVC,,0.00,WeatherDisplay:10.37,2013-04-08 20:53:00,
2013-04-08 16:58:00,69.6,49.6,29.83,WSW,257,8.9,13.8,49,0.00,OVC,,0.00,WeatherDisplay:10.37,2013-04-08 20:58:00,
2013-04-08 17:03:00,69.6,50.1,29.83,SW,223,5.3,7.0,50,0.00,OVC,,0.00,WeatherDisplay:10.37,2013-04-08 21:03:00,
2013-04-08 17:08:00,69.6,50.7,29.83,SW,234,4.2,11.5,51,0.00,OVC,,0.00,WeatherDisplay:10.37,2013-04-08 21:08:00,
2013-04-08 17:13:00,69.6,50.7,29.84,SW,232,3.8,12.7,51,0.00,OVC,,0.00,WeatherDisplay:10.37,2013-04-08 21:13:00,
2013-04-08 17:18:00,69.6,49.6,29.83,WSW,257,7.0,8.1,49,0.00,OVC,,0.00,WeatherDisplay:10.37,2013-04-08 21:18:00,
2013-04-08 17:23:00,69.6,49.6,29.84,SW,223,7.2,15.0,49,0.00,OVC,,0.00,WeatherDisplay:10.37,2013-04-08 21:23:00,
2013-04-08 17:28:00,69.6,50.7,29.84,SSW,209,6.2,11.0,51,0.00,OVC,,0.00,WeatherDisplay:10.37,2013-04-08 21:28:00,
2013-04-08 17:33:00,69.5,50.6,29.83,WSW,248,5.1,10.4,51,0.00,OVC,,0.00,WeatherDisplay:10.37,2013-04-08 21:33:00,
2013-04-08 17:38:00,69.4,50.5,29.84,SW,227,7.2,11.5,51,0.00,OVC,,0.00,WeatherDisplay:10.37,2013-04-08 21:38:00,
2013-04-08 17:43:00,69.4,50.5,29.84,SSW,207,8.7,15.0,51,0.00,OVC,,0.00,WeatherDisplay:10.37,2013-04-08 21:43:00,
2013-04-08 17:48:00,69.4,51.0,29.84,SW,231,6.3,10.4,52,0.00,OVC,,0.00,WeatherDisplay:10.37,2013-04-08 21:48:00,
2013-04-08 17:53:00,69.5,51.1,29.83,SW,233,7.6,11.5,52,0.00,OVC,,0.00,WeatherDisplay:10.37,2013-04-08 21:53:00,
2013-04-08 17:58:00,69.6,51.2,29.83,SSW,203,7.4,11.5,52,0.00,OVC,,0.00,WeatherDisplay:10.37,2013-04-08 21:58:00,
2013-04-08 18:03:00,69.7,51.3,29.83,SW,217,6.6,9.0,52,0.00,OVC,,0.00,WeatherDisplay:10.37,2013-04-08 22:03:00,
2013-04-08 18:08:00,69.7,51.3,29.83,SSW,198,8.7,11.5,52,0.00,OVC,,0.00,WeatherDisplay:10.37,2013-04-08 22:08:00,
2013-04-08 18:13:00,69.7,50.8,29.83,SW,221,6.8,11.5,51,0.00,OVC,,0.00,WeatherDisplay:10.37,2013-04-08 22:13:00,
2013-04-08 18:19:00,69.8,50.9,29.83,SW,236,8.7,13.8,51,0.00,OVC,,0.00,WeatherDisplay:10.37,2013-04-08 22:19:00,
2013-04-08 18:24:00,69.8,50.9,29.83,SSW,206,4.1,8.1,51,0.00,OVC,,0.00,WeatherDisplay:10.37,2013-04-08 22:24:00,
2013-04-08 18:29:00,69.8,50.3,29.83,SSW,212,6.6,11.5,50,0.00,OVC,,0.00,WeatherDisplay:10.37,2013-04-08 22:29:00,
2013-04-08 18:34:00,69.7,50.8,29.83,South,182,3.0,5.8,51,0.00,OVC,,0.00,WeatherDisplay:10.37,2013-04-08 22:34:00,
2013-04-08 18:39:00,69.7,50.8,29.83,SW,217,4.7,6.9,51,0.00,OVC,,0.00,WeatherDisplay:10.37,2013-04-08 22:39:00,
2013-04-08 18:44:00,69.7,50.8,29.83,SSE,165,9.1,19.6,51,0.00,OVC,,0.00,WeatherDisplay:10.37,2013-04-08 22:44:00,
2013-04-08 18:49:00,69.6,50.7,29.83,SW,215,5.6,9.2,51,0.00,OVC,,0.00,WeatherDisplay:10.37,2013-04-08 22:49:00,
2013-04-08 18:54:00,69.4,51.0,29.83,SW,225,7.7,11.5,52,0.00,OVC,,0.00,WeatherDisplay:10.37,2013-04-08 22:54:00,
2013-04-08 18:59:00,69.3,50.9,29.83,WSW,246,6.9,10.4,52,0.00,OVC,,0.00,WeatherDisplay:10.37,2013-04-08 22:59:00,
2013-04-08 19:04:00,69.1,51.2,29.83,SSW,203,8.5,17.3,53,0.00,OVC,,0.00,WeatherDisplay:10.37,2013-04-08 23:04:00,
2013-04-08 19:09:00,69.0,51.2,29.83,SSW,194,8.0,13.8,53,0.00,OVC,,0.00,WeatherDisplay:10.37,2013-04-08 23:09:00,
2013-04-08 19:14:00,68.8,51.0,29.83,South,188,8.7,12.7,53,0.00,OVC,,0.00,WeatherDisplay:10.37,2013-04-08 23:14:00,
2013-04-08 19:19:00,68.6,51.3,29.83,SSW,194,5.0,8.1,54,0.00,OVC,,0.00,WeatherDisplay:10.37,2013-04-08 23:19:00,
2013-04-08 19:24:00,68.4,51.6,29.83,WSW,240,3.8,8.1,55,0.00,OVC,,0.00,WeatherDisplay:10.37,2013-04-08 23:24:00,
2013-04-08 19:29:00,68.3,51.5,29.83,SSW,196,3.9,5.8,55,0.00,OVC,,0.00,WeatherDisplay:10.37,2013-04-08 23:29:00,
2013-04-08 19:34:00,68.2,51.4,29.83,SSW,212,3.8,5.8,55,0.00,OVC,,0.00,WeatherDisplay:10.37,2013-04-08 23:34:00,
2013-04-08 19:39:00,68.0,51.2,29.83,SSW,204,3.1,4.6,55,0.00,OVC,,0.00,WeatherDisplay:10.37,2013-04-08 23:39:00,
2013-04-08 19:45:00,67.9,51.1,29.83,SW,223,4.8,6.9,55,0.00,OVC,,0.00,WeatherDisplay:10.37,2013-04-08 23:45:00,
2013-04-08 19:50:00,67.7,50.9,29.83,SSW,202,5.0,13.0,55,0.00,OVC,OVC,0.00,WeatherDisplay:10.37,2013-04-08 23:50:00,
2013-04-08 19:55:00,67.7,50.9,29.83,SSW,208,5.0,10.0,55,0.00,OVC,OVC,0.00,WeatherDisplay:10.37,2013-04-08 23:55:00,
2013-04-08 20:00:00,67.5,51.2,29.83,South,175,3.6,9.2,56,0.00,OVC,,0.00,WeatherDisplay:10.37,2013-04-09 00:00:00,
2013-04-08 20:05:00,67.4,51.2,29.83,South,174,7.2,11.5,56,0.00,BKN,,0.00,WeatherDisplay:10.37,2013-04-09 00:05:00,
2013-04-08 20:10:00,67.4,51.2,29.83,South,186,2.6,5.8,56,0.00,BKN,,0.00,WeatherDisplay:10.37,2013-04-09 00:10:00,
2013-04-08 20:15:00,67.1,51.4,29.83,SSW,199,6.0,9.0,57,0.00,BKN,BKN,0.00,WeatherDisplay:10.37,2013-04-09 00:15:00,
2013-04-08 20:20:00,67.0,51.3,29.83,South,191,4.2,5.8,57,0.00,BKN,,0.00,WeatherDisplay:10.37,2013-04-09 00:20:00,
2013-04-08 20:25:00,66.9,51.2,29.83,SSW,200,3.0,7.0,57,0.00,BKN,BKN,0.00,WeatherDisplay:10.37,2013-04-09 00:25:00,
2013-04-08 20:30:00,66.8,51.1,29.83,SSW,204,2.0,8.0,57,0.00,BKN,BKN,0.00,WeatherDisplay:10.37,2013-04-09 00:30:00,
2013-04-08 20:35:00,66.7,51.0,29.83,SSW,201,1.0,4.0,57,0.00,BKN,BKN,0.00,WeatherDisplay:10.37,2013-04-09 00:35:00,
2013-04-08 20:40:00,66.6,50.9,29.83,SSW,198,5.0,8.0,57,0.00,BKN,BKN,0.00,WeatherDisplay:10.37,2013-04-09 00:40:00,
2013-04-08 20:45:00,66.5,51.3,29.84,South,182,5.8,9.2,58,0.00,BKN,,0.00,WeatherDisplay:10.37,2013-04-09 00:45:00,
2013-04-08 20:50:00,66.6,50.9,29.84,SSW,196,4.6,7.0,57,0.00,BKN,,0.00,WeatherDisplay:10.37,2013-04-09 00:50:00,
2013-04-08 20:55:00,66.5,51.3,29.85,SSW,196,5.0,9.0,58,0.00,BKN,BKN,0.00,WeatherDisplay:10.37,2013-04-09 00:55:00,
2013-04-08 21:00:00,66.4,51.2,29.85,SSW,201,3.4,4.0,58,0.00,BKN,,0.00,WeatherDisplay:10.37,2013-04-09 01:00:00,
2013-04-08 21:05:00,66.3,51.5,29.85,SSW,206,2.8,6.9,59,0.00,BKN,,0.00,WeatherDisplay:10.37,2013-04-09 01:05:00,
2013-04-08 21:10:00,66.2,51.4,29.85,SSW,213,2.0,9.0,59,0.00,BKN,BKN,0.00,WeatherDisplay:10.37,2013-04-09 01:10:00,
2013-04-08 21:15:00,66.1,51.4,29.86,SSW,199,2.2,3.5,59,0.00,BKN,,0.00,WeatherDisplay:10.37,2013-04-09 01:15:00,
2013-04-08 21:20:00,66.1,51.4,29.86,SSW,196,1.9,3.5,59,0.00,BKN,,0.00,WeatherDisplay:10.37,2013-04-09 01:20:00,
2013-04-08 21:25:00,66.0,51.3,29.86,SSW,195,2.4,3.5,59,0.00,BKN,,0.00,WeatherDisplay:10.37,2013-04-09 01:25:00,
2013-04-08 21:30:00,66.0,51.3,29.86,South,177,4.3,6.9,59,0.00,BKN,,0.00,WeatherDisplay:10.37,2013-04-09 01:30:00,
2013-04-08 21:35:00,65.9,51.2,29.86,SSW,205,3.3,4.6,59,0.00,BKN,,0.00,WeatherDisplay:10.37,2013-04-09 01:35:00,
2013-04-08 21:40:00,65.9,51.2,29.86,SSW,192,2.6,3.5,59,0.00,BKN,,0.00,WeatherDisplay:10.37,2013-04-09 01:40:00,
2013-04-08 21:45:00,65.8,51.5,29.86,SSW,205,1.2,3.5,60,0.00,BKN,,0.00,WeatherDisplay:10.37,2013-04-09 01:45:00,
2013-04-08 21:50:00,65.5,51.2,29.87,WSW,239,0.9,2.3,60,0.00,BKN,,0.00,WeatherDisplay:10.37,2013-04-09 01:50:00,
2013-04-08 21:55:00,65.2,51.0,29.87,SW,230,5.2,6.9,60,0.00,BKN,,0.00,WeatherDisplay:10.37,2013-04-09 01:55:00,
2013-04-08 22:00:00,64.9,51.1,29.87,SW,233,3.5,4.6,61,0.00,BKN,,0.00,WeatherDisplay:10.37,2013-04-09 02:00:00,
2013-04-08 22:05:00,64.7,51.4,29.87,SW,222,2.2,4.6,62,0.00,SCT,,0.00,WeatherDisplay:10.37,2013-04-09 02:05:00,
2013-04-08 22:10:00,64.5,51.6,29.87,West,261,3.7,6.9,63,0.00,SCT,,0.00,WeatherDisplay:10.37,2013-04-09 02:10:00,
2013-04-08 22:15:00,64.4,51.5,29.87,SSW,207,2.8,9.2,63,0.00,SCT,,0.00,WeatherDisplay:10.37,2013-04-09 02:15:00,
2013-04-08 22:20:00,64.6,51.7,29.87,WSW,245,2.9,3.5,63,0.00,SCT,,0.00,WeatherDisplay:10.37,2013-04-09 02:20:00,
2013-04-08 22:25:00,64.8,52.3,29.88,SW,226,2.8,4.6,64,0.00,SCT,,0.00,WeatherDisplay:10.37,2013-04-09 02:25:00,
2013-04-08 22:30:00,64.8,52.3,29.88,SW,215,2.6,4.0,64,0.00,SCT,,0.00,WeatherDisplay:10.37,2013-04-09 02:30:00,
2013-04-08 22:35:00,64.8,52.3,29.87,SW,234,5.4,8.1,64,0.00,SCT,,0.00,WeatherDisplay:10.37,2013-04-09 02:35:00,
2013-04-08 22:40:00,65.0,52.5,29.88,West,276,4.6,6.9,64,0.00,SCT,,0.00,WeatherDisplay:10.37,2013-04-09 02:40:00,
2013-04-08 22:45:00,65.3,52.4,29.88,SW,231,6.4,12.7,63,0.00,SCT,,0.00,WeatherDisplay:10.37,2013-04-09 02:45:00,
2013-04-08 22:50:00,65.7,52.8,29.87,WSW,250,4.4,5.8,63,0.00,SCT,,0.00,WeatherDisplay:10.37,2013-04-09 02:50:00,
2013-04-08 22:55:00,65.9,52.9,29.88,WSW,243,6.1,8.1,63,0.00,SCT,,0.00,WeatherDisplay:10.37,2013-04-09 02:55:00,
2013-04-08 23:00:00,66.1,53.1,29.87,SW,215,4.1,8.1,63,0.00,SCT,,0.00,WeatherDisplay:10.37,2013-04-09 03:00:00,
2013-04-08 23:05:00,66.1,53.1,29.88,WSW,249,5.5,11.5,63,0.00,BKN,,0.00,WeatherDisplay:10.37,2013-04-09 03:05:00,
2013-04-08 23:10:00,66.0,53.0,29.87,SW,234,6.2,13.8,63,0.00,BKN,,0.00,WeatherDisplay:10.37,2013-04-09 03:10:00,
2013-04-08 23:15:00,65.9,53.4,29.88,SW,235,4.7,8.1,64,0.00,BKN,,0.00,WeatherDisplay:10.37,2013-04-09 03:15:00,
2013-04-08 23:20:00,65.9,53.4,29.88,WSW,245,6.2,10.4,64,0.00,BKN,,0.00,WeatherDisplay:10.37,2013-04-09 03:20:00,
2013-04-08 23:25:00,65.9,53.4,29.88,WSW,238,7.9,12.7,64,0.00,BKN,,0.00,WeatherDisplay:10.37,2013-04-09 03:25:00,
2013-04-08 23:30:00,66.1,53.6,29.88,SW,233,3.5,5.8,64,0.00,BKN,,0.00,WeatherDisplay:10.37,2013-04-09 03:30:00,
2013-04-08 23:35:00,66.0,53.5,29.88,WSW,253,5.8,10.4,64,0.00,BKN,,0.00,WeatherDisplay:10.37,2013-04-09 03:35:00,
2013-04-08 23:40:00,66.0,53.5,29.88,SSW,206,7.6,12.7,64,0.00,BKN,,0.00,WeatherDisplay:10.37,2013-04-09 03:40:00,
2013-04-08 23:45:00,66.2,53.7,29.88,WSW,247,5.4,10.4,64,0.00,BKN,,0.00,WeatherDisplay:10.37,2013-04-09 03:45:00,
2013-04-08 23:50:00,66.2,53.7,29.89,WSW,251,2.9,3.5,64,0.00,BKN,,0.00,WeatherDisplay:10.37,2013-04-09 03:50:00,
2013-04-08 23:55:00,66.2,53.7,29.88,WSW,240,7.8,11.5,64,0.00,BKN,,0.00,WeatherDisplay:10.37,2013-04-09 03:55:00,